Time,TemperatureF,DewpointF,PressureIn,WindDirection,WindDirectionDegrees,WindSpeedMPH,WindSpeedGustMPH,Humidity,HourlyPrecipIn,Conditions,Clouds,dailyrainin,SoftwareType,DateUTC
2013-01-15 00:03:00,27.0,21.0,-100.00,NNE,30,1.0,3.0,78,0.00,,,-99.99,,2013-01-15 05:03:00,
2013-01-15 00:12:00,27.0,21.0,-100.00,North,0,2.0,3.0,78,0.00,,,-99.99,,2013-01-15 05:12:00,
2013-01-15 00:22:00,26.0,21.0,-100.00,North,0,1.0,4.0,79,0.00,,,-99.99,,2013-01-15 05:22:00,
2013-01-15 00:33:00,26.0,21.0,-100.00,North,0,2.0,5.0,79,0.00,,,-99.99,,2013-01-15 05:33:00,
2013-01-15 00:42:00,26.0,21.0,-100.00,North,0,2.0,4.0,79,0.00,,,-99.99,,2013-01-15 05:42:00,
2013-01-15 00:52:00,26.0,20.0,-100.00,NNE,15,2.0,6.0,79,0.00,,,-99.99,,2013-01-15 05:52:00,
2013-01-15 01:02:00,26.0,21.0,-100.00,NNE,30,2.0,6.0,79,0.00,,,-99.99,,2013-01-15 06:02:00,
2013-01-15 01:12:00,26.0,21.0,-100.00,NNE,25,2.0,5.0,80,0.00,,,-99.99,,2013-01-15 06:12:00,
2013-01-15 01:22:00,26.0,21.0,-100.00,North,355,2.0,4.0,80,0.00,,,-99.99,,2013-01-15 06:22:00,
2013-01-15 01:33:00,26.0,20.0,-100.00,North,10,3.0,5.0,80,0.00,,,-99.99,,2013-01-15 06:33:00,
2013-01-15 01:43:00,26.0,20.0,-100.00,North,0,3.0,7.0,80,0.00,,,-99.99,,2013-01-15 06:43:00,
2013-01-15 01:52:00,25.0,20.0,-100.00,North,0,2.0,6.0,80,0.00,,,-99.99,,2013-01-15 06:52:00,
2013-01-15 02:02:00,25.0,20.0,-100.00,North,0,3.0,6.0,80,0.00,,,-99.99,,2013-01-15 07:02:00,
2013-01-15 02:12:00,25.0,20.0,-100.00,NNE,15,3.0,6.0,81,0.00,,,-99.99,,2013-01-15 07:12:00,
2013-01-15 02:22:00,25.0,20.0,-100.00,North,0,4.0,6.0,81,0.00,,,-99.99,,2013-01-15 07:22:00,
2013-01-15 02:33:00,25.0,20.0,-100.00,North,0,4.0,6.0,82,0.00,,,-99.99,,2013-01-15 07:33:00,
2013-01-15 02:42:00,25.0,20.0,-100.00,North,0,4.0,6.0,82,0.00,,,-99.99,,2013-01-15 07:42:00,
2013-01-15 02:52:00,24.0,20.0,-100.00,North,0,4.0,6.0,82,0.00,,,-99.99,,2013-01-15 07:52:00,
2013-01-15 03:02:00,24.0,20.0,-100.00,North,0,4.0,6.0,83,0.00,,,-99.99,,2013-01-15 08:02:00,
2013-01-15 03:12:00,24.0,20.0,-100.00,North,0,4.0,9.0,83,0.00,,,-99.99,,2013-01-15 08:12:00,
2013-01-15 03:22:00,24.0,20.0,-100.00,North,355,4.0,7.0,83,0.00,,,-99.99,,2013-01-15 08:22:00,
2013-01-15 03:33:00,24.0,20.0,-100.00,North,355,4.0,6.0,83,0.00,,,-99.99,,2013-01-15 08:33:00,
2013-01-15 03:42:00,24.0,20.0,-100.00,North,5,4.0,7.0,83,0.00,,,-99.99,,2013-01-15 08:42:00,
2013-01-15 03:52:00,24.0,20.0,-100.00,North,355,3.0,9.0,84,0.00,,,-99.99,,2013-01-15 08:52:00,
2013-01-15 04:02:00,24.0,20.0,-100.00,North,0,2.0,6.0,84,0.00,,,-99.99,,2013-01-15 09:02:00,
2013-01-15 04:12:00,24.0,20.0,-100.00,North,5,4.0,7.0,83,0.00,,,-99.99,,2013-01-15 09:12:00,
2013-01-15 04:22:00,24.0,20.0,-100.00,NNE,30,2.0,6.0,84,0.00,,,-99.99,,2013-01-15 09:22:00,
2013-01-15 04:33:00,24.0,20.0,-100.00,NNE,15,4.0,7.0,84,0.00,,,-99.99,,2013-01-15 09:33:00,
2013-01-15 04:42:00,23.0,19.0,-100.00,NNE,30,4.0,6.0,84,0.00,,,-99.99,,2013-01-15 09:42:00,
2013-01-15 04:52:00,23.0,19.0,-100.00,NNE,20,2.0,5.0,85,0.00,,,-99.99,,2013-01-15 09:52:00,
2013-01-15 05:02:00,23.0,20.0,-100.00,North,5,2.0,4.0,85,0.00,,,-99.99,,2013-01-15 10:02:00,
2013-01-15 05:12:00,23.0,19.0,-100.00,NNE,25,3.0,6.0,86,0.00,,,-99.99,,2013-01-15 10:12:00,
2013-01-15 05:22:00,23.0,19.0,-100.00,NE,35,4.0,6.0,85,0.00,,,-99.99,,2013-01-15 10:22:00,
2013-01-15 05:32:00,23.0,19.0,-100.00,NNE,25,1.0,6.0,86,0.00,,,-99.99,,2013-01-15 10:32:00,
2013-01-15 05:42:00,23.0,19.0,-100.00,NNE,30,0.0,4.0,85,0.00,,,-99.99,,2013-01-15 10:42:00,
2013-01-15 05:52:00,23.0,19.0,-100.00,North,0,1.0,3.0,86,0.00,,,-99.99,,2013-01-15 10:52:00,
2013-01-15 06:02:00,23.0,19.0,-100.00,North,0,1.0,3.0,86,0.00,,,-99.99,,2013-01-15 11:02:00,
2013-01-15 06:12:00,24.0,20.0,-100.00,North,355,1.0,3.0,84,0.00,,,-99.99,,2013-01-15 11:12:00,
2013-01-15 06:22:00,23.0,19.0,-100.00,NNE,15,1.0,3.0,84,0.00,,,-99.99,,2013-01-15 11:22:00,
2013-01-15 06:33:00,23.0,19.0,-100.00,NNE,15,3.0,4.0,83,0.00,,,-99.99,,2013-01-15 11:33:00,
2013-01-15 06:42:00,24.0,20.0,-100.00,North,0,2.0,5.0,82,0.00,,,-99.99,,2013-01-15 11:42:00,
2013-01-15 06:52:00,24.0,19.0,-100.00,North,0,2.0,4.0,83,0.00,,,-99.99,,2013-01-15 11:52:00,
2013-01-15 07:03:00,23.0,19.0,-100.00,North,5,2.0,5.0,83,0.00,,,-99.99,,2013-01-15 12:03:00,
2013-01-15 07:12:00,23.0,19.0,-100.00,NNE,25,4.0,6.0,83,0.00,,,-99.99,,2013-01-15 12:12:00,
2013-01-15 07:22:00,23.0,19.0,-100.00,NNE,25,1.0,5.0,84,0.00,,,-99.99,,2013-01-15 12:22:00,
2013-01-15 07:33:00,23.0,19.0,-100.00,North,5,1.0,6.0,83,0.00,,,-99.99,,2013-01-15 12:33:00,
2013-01-15 07:43:00,23.0,19.0,-100.00,North,0,4.0,6.0,83,0.00,,,-99.99,,2013-01-15 12:43:00,
2013-01-15 07:53:00,23.0,19.0,-100.00,NNE,15,2.0,9.0,83,0.00,,,-99.99,,2013-01-15 12:53:00,
2013-01-15 08:03:00,23.0,19.0,-100.00,NNE,25,4.0,6.0,83,0.00,,,-99.99,,2013-01-15 13:03:00,
2013-01-15 08:12:00,23.0,19.0,-100.00,NNE,20,2.0,6.0,83,0.00,,,-99.99,,2013-01-15 13:12:00,
2013-01-15 08:23:00,23.0,19.0,-100.00,ENE,75,1.0,5.0,82,0.00,,,-99.99,,2013-01-15 13:23:00,
2013-01-15 08:33:00,23.0,19.0,-100.00,NNE,25,3.0,6.0,81,0.00,,,-99.99,,2013-01-15 13:33:00,
2013-01-15 08:43:00,23.0,19.0,-100.00,NNE,15,4.0,6.0,81,0.00,,,-99.99,,2013-01-15 13:43:00,
2013-01-15 08:53:00,24.0,19.0,-100.00,NNE,25,2.0,6.0,81,0.00,,,-99.99,,2013-01-15 13:53:00,
2013-01-15 09:03:00,24.0,19.0,-100.00,NNE,25,2.0,6.0,81,0.00,,,-99.99,,2013-01-15 14:03:00,
2013-01-15 09:12:00,24.0,19.0,-100.00,NE,45,1.0,3.0,81,0.00,,,-99.99,,2013-01-15 14:12:00,
2013-01-15 09:23:00,24.0,19.0,-100.00,NE,50,1.0,4.0,82,0.00,,,-99.99,,2013-01-15 14:23:00,
2013-01-15 09:33:00,24.0,19.0,-100.00,ENE,65,2.0,4.0,80,0.00,,,-99.99,,2013-01-15 14:33:00,
2013-01-15 09:43:00,25.0,19.0,-100.00,ENE,70,2.0,4.0,79,0.00,,,-99.99,,2013-01-15 14:43:00,
2013-01-15 09:53:00,25.0,20.0,-100.00,East,80,1.0,4.0,79,0.00,,,-99.99,,2013-01-15 14:53:00,
2013-01-15 10:03:00,26.0,20.0,-100.00,East,85,2.0,6.0,78,0.00,,,-99.99,,2013-01-15 15:03:00,
2013-01-15 10:12:00,26.0,20.0,-100.00,NE,55,2.0,6.0,77,0.00,,,-99.99,,2013-01-15 15:12:00,
2013-01-15 10:23:00,26.0,20.0,-100.00,NE,45,4.0,8.0,77,0.00,,,-99.99,,2013-01-15 15:23:00,
2013-01-15 10:33:00,27.0,20.0,-100.00,NE,35,5.0,11.0,75,0.00,,,-99.99,,2013-01-15 15:33:00,
2013-01-15 10:43:00,26.0,19.0,-100.00,NE,35,7.0,16.0,73,0.00,,,-99.99,,2013-01-15 15:43:00,
2013-01-15 10:53:00,27.0,20.0,-100.00,ENE,60,6.0,12.0,73,0.00,,,-99.99,,2013-01-15 15:53:00,
2013-01-15 11:03:00,27.0,19.0,-100.00,NE,40,4.0,10.0,72,0.00,,,-99.99,,2013-01-15 16:03:00,
2013-01-15 11:12:00,28.0,20.0,-100.00,ESE,115,4.0,9.0,70,0.00,,,-99.99,,2013-01-15 16:12:00,
2013-01-15 11:23:00,28.0,19.0,-100.00,East,85,5.0,12.0,69,0.55,,,-99.99,,2013-01-15 16:23:00,
2013-01-15 11:33:00,29.0,20.0,-100.00,NE,35,5.0,9.0,68,0.55,,,-99.99,,2013-01-15 16:33:00,
2013-01-15 11:43:00,29.0,20.0,-100.00,East,85,7.0,12.0,70,0.00,,,-99.99,,2013-01-15 16:43:00,
2013-01-15 11:53:00,29.0,20.0,-100.00,ENE,70,6.0,9.0,68,0.00,,,-99.99,,2013-01-15 16:53:00,
2013-01-15 12:03:00,28.0,20.0,-100.00,NNE,20,4.0,9.0,69,0.00,,,-99.99,,2013-01-15 17:03:00,
2013-01-15 12:12:00,30.0,21.0,-100.00,NNE,30,5.0,7.0,69,0.00,,,-99.99,,2013-01-15 17:12:00,
2013-01-15 12:22:00,29.0,20.0,-100.00,ENE,70,3.0,7.0,66,0.00,,,-99.99,,2013-01-15 17:22:00,
2013-01-15 12:33:00,29.0,19.0,-100.00,SE,135,4.0,8.0,65,0.00,,,-99.99,,2013-01-15 17:33:00,
2013-01-15 12:42:00,31.0,20.0,-100.00,ENE,65,4.0,7.0,63,0.00,,,-99.99,,2013-01-15 17:42:00,
2013-01-15 12:53:00,31.0,20.0,-100.00,East,95,3.0,8.0,63,0.00,,,-99.99,,2013-01-15 17:53:00,
2013-01-15 13:03:00,31.0,20.0,-100.00,East,95,1.0,7.0,63,0.00,,,-99.99,,2013-01-15 18:03:00,
2013-01-15 13:13:00,30.0,20.0,-100.00,NE,50,4.0,9.0,63,0.00,,,-99.99,,2013-01-15 18:13:00,
2013-01-15 13:23:00,31.0,19.0,-100.00,ENE,75,4.0,7.0,61,0.00,,,-99.99,,2013-01-15 18:23:00,
2013-01-15 13:33:00,31.0,20.0,-100.00,North,0,3.0,8.0,61,0.00,,,-99.99,,2013-01-15 18:33:00,
2013-01-15 13:43:00,31.0,20.0,-100.00,NE,35,4.0,9.0,64,0.00,,,-99.99,,2013-01-15 18:43:00,
2013-01-15 13:53:00,31.0,20.0,-100.00,NE,55,2.0,11.0,64,0.00,,,-99.99,,2013-01-15 18:53:00,
2013-01-15 14:03:00,31.0,20.0,-100.00,NE,40,4.0,9.0,63,0.00,,,-99.99,,2013-01-15 19:03:00,
2013-01-15 14:12:00,31.0,20.0,-100.00,NNE,25,7.0,10.0,64,0.00,,,-99.99,,2013-01-15 19:12:00,
2013-01-15 14:23:00,31.0,20.0,-100.00,NE,35,4.0,11.0,63,0.00,,,-99.99,,2013-01-15 19:23:00,
2013-01-15 14:33:00,31.0,20.0,-100.00,NNE,15,4.0,9.0,63,0.00,,,-99.99,,2013-01-15 19:33:00,
2013-01-15 14:42:00,31.0,20.0,-100.00,NE,50,6.0,9.0,63,0.00,,,-99.99,,2013-01-15 19:42:00,
2013-01-15 14:53:00,31.0,20.0,-100.00,ENE,60,4.0,9.0,62,0.00,,,-99.99,,2013-01-15 19:53:00,
2013-01-15 15:03:00,31.0,20.0,-100.00,North,5,5.0,9.0,63,0.00,,,-99.99,,2013-01-15 20:03:00,
2013-01-15 15:12:00,31.0,20.0,-100.00,NNE,25,4.0,9.0,63,0.00,,,-99.99,,2013-01-15 20:12:00,
2013-01-15 15:23:00,31.0,21.0,-100.00,NNE,15,7.0,10.0,66,0.00,,,-99.99,,2013-01-15 20:23:00,
2013-01-15 15:33:00,31.0,20.0,-100.00,North,5,6.0,11.0,65,0.00,,,-99.99,,2013-01-15 20:33:00,
2013-01-15 15:43:00,31.0,20.0,-100.00,NE,50,4.0,9.0,64,0.00,,,-99.99,,2013-01-15 20:43:00,
2013-01-15 15:52:00,31.0,20.0,-100.00,NNE,20,6.0,11.0,64,0.00,,,-99.99,,2013-01-15 20:52:00,
2013-01-15 16:03:00,31.0,20.0,-100.00,ENE,65,6.0,10.0,64,0.00,,,-99.99,,2013-01-15 21:03:00,
2013-01-15 16:13:00,31.0,20.0,-100.00,NNE,20,4.0,9.0,64,0.00,,,-99.99,,2013-01-15 21:13:00,
2013-01-15 16:23:00,31.0,21.0,-100.00,NNE,15,4.0,8.0,65,0.00,,,-99.99,,2013-01-15 21:23:00,
2013-01-15 16:33:00,31.0,20.0,-100.00,NE,40,5.0,9.0,64,0.00,,,-99.99,,2013-01-15 21:33:00,
2013-01-15 16:43:00,30.0,20.0,-100.00,NE,35,6.0,9.0,64,0.00,,,-99.99,,2013-01-15 21:43:00,
2013-01-15 16:52:00,30.0,20.0,-100.00,NE,40,6.0,11.0,63,0.00,,,-99.99,,2013-01-15 21:52:00,
2013-01-15 17:03:00,30.0,20.0,-100.00,NE,50,6.0,9.0,64,0.00,,,-99.99,,2013-01-15 22:03:00,
2013-01-15 17:12:00,30.0,20.0,-100.00,NE,50,2.0,6.0,65,0.00,,,-99.99,,2013-01-15 22:12:00,
2013-01-15 17:23:00,30.0,19.0,-100.00,ENE,60,4.0,9.0,64,0.00,,,-99.99,,2013-01-15 22:23:00,
2013-01-15 17:33:00,30.0,19.0,-100.00,ENE,70,5.0,9.0,62,0.00,,,-99.99,,2013-01-15 22:33:00,
2013-01-15 17:43:00,30.0,19.0,-100.00,NE,45,4.0,9.0,63,0.00,,,-99.99,,2013-01-15 22:43:00,
2013-01-15 17:52:00,30.0,19.0,-100.00,NE,35,4.0,8.0,64,0.00,,,-99.99,,2013-01-15 22:52:00,
2013-01-15 18:03:00,30.0,20.0,-100.00,NE,45,3.0,6.0,64,0.00,,,-99.99,,2013-01-15 23:03:00,
2013-01-15 18:13:00,30.0,20.0,-100.00,NE,55,2.0,7.0,64,0.00,,,-99.99,,2013-01-15 23:13:00,
2013-01-15 18:22:00,30.0,19.0,-100.00,ENE,70,5.0,7.0,64,0.00,,,-99.99,,2013-01-15 23:22:00,
2013-01-15 18:33:00,30.0,20.0,-100.00,ENE,65,3.0,9.0,65,0.00,,,-99.99,,2013-01-15 23:33:00,
2013-01-15 18:43:00,30.0,19.0,-100.00,ENE,70,2.0,8.0,64,0.00,,,-99.99,,2013-01-15 23:43:00,
2013-01-15 18:53:00,30.0,20.0,-100.00,NE,50,3.0,7.0,65,0.00,,,-99.99,,2013-01-15 23:53:00,
2013-01-15 19:03:00,30.0,20.0,-100.00,NE,50,4.0,8.0,65,0.00,,,-99.99,,2013-01-16 00:03:00,
2013-01-15 19:12:00,30.0,20.0,-100.00,East,80,4.0,7.0,65,0.00,,,-99.99,,2013-01-16 00:12:00,
2013-01-15 19:22:00,30.0,20.0,-100.00,East,85,4.0,9.0,65,0.00,,,-99.99,,2013-01-16 00:22:00,
2013-01-15 19:33:00,29.0,20.0,-100.00,East,90,6.0,12.0,66,0.00,,,-99.99,,2013-01-16 00:33:00,
2013-01-15 19:43:00,30.0,19.0,-100.00,NE,50,4.0,11.0,65,0.00,,,-99.99,,2013-01-16 00:43:00,
2013-01-15 19:52:00,30.0,19.0,-100.00,East,85,3.0,7.0,64,0.00,,,-99.99,,2013-01-16 00:52:00,
2013-01-15 20:03:00,30.0,20.0,-100.00,ENE,75,4.0,10.0,65,0.00,,,-99.99,,2013-01-16 01:03:00,
2013-01-15 20:12:00,30.0,20.0,-100.00,ENE,70,4.0,8.0,66,0.00,,,-99.99,,2013-01-16 01:12:00,
2013-01-15 20:22:00,29.0,20.0,-100.00,ENE,70,4.0,7.0,65,0.00,,,-99.99,,2013-01-16 01:22:00,
2013-01-15 20:33:00,29.0,19.0,-100.00,NE,55,4.0,8.0,65,0.00,,,-99.99,,2013-01-16 01:33:00,
2013-01-15 20:42:00,30.0,20.0,-100.00,North,10,4.0,9.0,66,0.00,,,-99.99,,2013-01-16 01:42:00,
2013-01-15 20:52:00,30.0,20.0,-100.00,NNE,25,4.0,7.0,66,0.00,,,-99.99,,2013-01-16 01:52:00,
2013-01-15 21:03:00,29.0,20.0,-100.00,NE,50,6.0,8.0,67,0.00,,,-99.99,,2013-01-16 02:03:00,
2013-01-15 21:12:00,29.0,20.0,-100.00,ENE,60,4.0,9.0,67,0.00,,,-99.99,,2013-01-16 02:12:00,
2013-01-15 21:22:00,29.0,20.0,-100.00,East,85,4.0,8.0,68,0.00,,,-99.99,,2013-01-16 02:22:00,
2013-01-15 21:33:00,29.0,20.0,-100.00,East,80,4.0,8.0,69,0.00,,,-99.99,,2013-01-16 02:33:00,
2013-01-15 21:42:00,29.0,20.0,-100.00,East,95,6.0,9.0,69,0.00,,,-99.99,,2013-01-16 02:42:00,
2013-01-15 21:52:00,29.0,20.0,-100.00,East,90,6.0,9.0,69,0.00,,,-99.99,,2013-01-16 02:52:00,
2013-01-15 22:03:00,29.0,20.0,-100.00,East,85,7.0,9.0,67,0.00,,,-99.99,,2013-01-16 03:03:00,
2013-01-15 22:12:00,29.0,20.0,-100.00,East,80,4.0,8.0,67,0.00,,,-99.99,,2013-01-16 03:12:00,
2013-01-15 22:22:00,29.0,20.0,-100.00,East,85,4.0,9.0,67,0.00,,,-99.99,,2013-01-16 03:22:00,
2013-01-15 22:33:00,29.0,20.0,-100.00,East,90,2.0,7.0,68,0.00,,,-99.99,,2013-01-16 03:33:00,
2013-01-15 22:43:00,29.0,20.0,-100.00,ENE,70,4.0,6.0,67,0.00,,,-99.99,,2013-01-16 03:43:00,
2013-01-15 22:52:00,29.0,20.0,-100.00,ENE,70,2.0,7.0,67,0.00,,,-99.99,,2013-01-16 03:52:00,
2013-01-15 23:02:00,29.0,20.0,-100.00,ENE,60,2.0,6.0,67,0.00,,,-99.99,,2013-01-16 04:02:00,
2013-01-15 23:12:00,29.0,20.0,-100.00,NE,45,3.0,6.0,67,0.00,,,-99.99,,2013-01-16 04:12:00,
2013-01-15 23:22:00,29.0,20.0,-100.00,ENE,70,4.0,9.0,67,0.00,,,-99.99,,2013-01-16 04:22:00,
2013-01-15 23:33:00,29.0,20.0,-100.00,East,85,2.0,6.0,67,0.00,,,-99.99,,2013-01-16 04:33:00,
2013-01-15 23:42:00,29.0,20.0,-100.00,ENE,70,4.0,7.0,68,0.00,,,-99.99,,2013-01-16 04:42:00,
2013-01-15 23:52:00,29.0,20.0,-100.00,ENE,65,2.0,6.0,67,0.00,,,-99.99,,2013-01-16 04:52:00,